Location: Elstree
(51.6403°N, 0.2969°W)
Time: 14:34:37
(UTC+00:00)

MetOp-A - Pass Details

Date: 03 March 2021
Orbit: 819 x 821 km, 98.5° (Epoch: 13 April)

Event Time Altitude Azimuth Distance (km) Brightness Sun altitude
Exits shadow 19:27:03 - 162° (SSE) 3,304 7.0 -16.5°
Reaches altitude 10° 19:29:17 10° 162° (SSE) 2,415 6.3 -16.9°
Maximum altitude 19:34:39 88° 73° (ENE) 830 4.1 -17.7°
Drops below altitude 10° 19:40:03 10° 345° (NNW) 2,432 6.9 -18.5°
Sets 19:42:25 0° 346° (NNW) 3,369 7.7 -18.9°
